Notices

What's New in latest Release from April 7th, 2021:

- Updated Glossary, including Speed of Maximum Gust, and Total Hourly Precipitation

- Updated national and regional climate services offices contacts and prices information

- Addition of station inventory lists for 1981-2010, 1971-2000, and 1961-1990 Normals.

If you haven't already, please take our survey and provide feedback about our website: https://eccc.sondage-survey.ca/f/LanguageSelection.aspx?s=442ca660-fcf1-47c0-95a9-59707d6fd709

Hourly Data Report for April 06, 2012

MIRAMICHI RCS
NEW BRUNSWICK

47°00'34.000" N
65°27'54.000" W
33.00 m
8100989
71744
ACQ

Download Data

Hourly Data (April 2012)
Hourly Data Report for April 6, 2012
TIME
LST
Temp Definition
°C
Dew Point Definition
°C
Rel Hum Definition
%
Precip. Amount Definition
mm

Wind Dir Definition
10's deg

Wind Spd Definition
km/h
Visibility Definition
km
Stn Press Definition
kPa
Hmdx Definition


Wind Chill Definition


Weather Definition


00:00 1.3 -4.1 67   25 11   99.88     LegendNANA
01:00 1.2 -3.9 69   25 11   99.92     LegendNANA
02:00 0.9 -4.2 69   24 13   99.95     LegendNANA
03:00 0.7 -4.1 70   24 11   99.97     LegendNANA
04:00 0.9 -4.4 68   27 13   100.03     LegendNANA
05:00 1.0 -4.3 68   27 11   100.08     LegendNANA
06:00 0.6 -4.5 69   25 7   100.11     LegendNANA
07:00 0.7 -4.2 70   25 9   100.18     LegendNANA
08:00 2.3 -6.6 52   29 15   100.22     LegendNANA
09:00 2.4 -6.6 51   28 17   100.25     LegendNANA
10:00 3.2 -7.3 46   29 15   100.27     LegendNANA
11:00 4.3 -7.3 43   26 11   100.27     LegendNANA
12:00 5.6 -7.7 38   25 15   100.23     LegendNANA
13:00 6.8 -8.6 32   25 20   100.21     LegendNANA
14:00 7.6 -9.6 28   23 20   100.23     LegendNANA
15:00 7.9 -8.9 29   23 19   100.21     LegendNANA
16:00 8.1 -8.5 30   25 19   100.23     LegendNANA
17:00 7.5 -8.5 31   25 15   100.30     LegendNANA
18:00 5.0 -8.5 37   1 11   100.46     LegendNANA
19:00 4.1 -7.3 43   3 7   100.57     LegendNANA
20:00 3.3 -6.9 47   2 6   100.68     LegendNANA
21:00 2.3 -7.1 50   4 7   100.77     LegendNANA
22:00 1.4 -7.3 52   3 4   100.80     LegendNANA
23:00 0.1 -7.4 57   3 2   100.83     LegendNANA

Notes on Data Quality.

Legend

  • E = Estimated
  • M = Missing
  • NA = Not Available*
  • [empty] = Indicates an unobserved value
Date modified: